Location: ???????
(56.2167°N, 38.0500°E)
Time: 11:29:44
(UTC+00:00)

Cosmos 614 Rocket - Pass Details

Date: 19 May 2025
Orbit: 729 x 758 km, 74.1° (Epoch: 13 June)

Event Time Altitude Azimuth Distance (km) Brightness Sun altitude
Exits shadow 23:34:36 10° 191° (S) 2,318 5.9 -9.0°
Reaches altitude 10° 23:34:41 10° 191° (S) 2,285 5.9 -9.0°
Maximum altitude 23:39:47 61° 112° (ESE) 863 4.3 -8.6°
Drops below altitude 10° 23:44:55 10° 33° (NNE) 2,295 8.2 -8.2°
Sets 23:47:18 0° 30° (NNE) 3,221 9.8 -8.1°
